sat.trackr.live / text

‹ back to catalog

STARLINK-38014

NORAD 69721 · 2026-147T

PAYLOAD ACTIVE UNKNOWN

§ Identity

Operator
Country
US
Launch date
2026-06-28
Launch site
AFWTR
Launch vehicle
Mass (kg)
RCS (m²)

Purposes: comms

External: N2YO · Heavens-Above · Gunter

§ Orbital elements

Epoch: 2026-09-19T19:58:23.410560Z

Period
93.91 min
Inclination
97.2846°
Eccentricity
0.0001354
Mean motion
15.33457147 rev/d
Perigee alt
464.6 km
Apogee alt
466.4 km
Semi-major
6,843.6 km
B*
6.3660e-4
RAAN
299.2355°
Arg perigee
92.0246°
Mean anomaly
268.1152°
Rev number
1,413

§ Raw data

STARLINK-380141 69721U 26147T   26262.83221540  .00020541  00000+0  63660-3 0  99932 69721  97.2846 299.2355 0001354  92.0246 268.1152 15.33457147 14138

JSON: /api/v1/satellites/69721 · /tle

For live sub-satellite position, see the globe view (requires WebGL).

§ Visibility from observer

Set your observer location to see the next 7 days of passes ≥ 10°. The values pass through the URL so the page stays shareable.

No JS? Fill the form by hand. The geolocation button needs JavaScript.